CDT,Max TemperatureF,Mean TemperatureF,Min TemperatureF,Max Dew PointF,MeanDew PointF,Min DewpointF,Max Humidity, Mean Humidity, Min Humidity, Max Sea Level PressureIn, Mean Sea Level PressureIn, Min Sea Level PressureIn, Max VisibilityMiles, Mean VisibilityMiles, Min VisibilityMiles, Max Wind SpeedMPH, Mean Wind SpeedMPH, Max Gust SpeedMPH,PrecipitationIn, CloudCover, Events, WindDirDegrees
2012-10-1,70,56,41,52,40,29,78,51,27,30.11,30.04,29.94,10,10,10,21,9,29,0.00,3,Rain,344
2012-10-2,75,52,29,33,27,22,87,44,14,30.07,29.94,29.83,10,10,10,13,5,18,0.00,0,,194
2012-10-3,85,65,45,43,37,29,62,41,21,30.04,29.82,29.69,10,10,10,26,11,37,0.00,0,,167
2012-10-4,53,42,31,38,31,24,77,59,39,30.36,30.24,30.06,10,10,10,28,18,38,0.00,2,Thunderstorm,335
2012-10-5,52,39,26,28,23,18,86,57,27,30.37,30.32,30.27,10,10,10,16,5,23,0.00,0,,328
2012-10-6,46,34,21,22,19,15,81,56,35,30.39,30.34,30.30,10,10,10,15,6,21,0.00,0,,334
2012-10-7,58,38,18,28,21,14,89,53,22,30.30,30.13,29.96,10,10,7,18,5,25,0.00,0,,242
2012-10-8,76,56,38,36,26,19,58,38,14,29.96,29.85,29.73,10,10,10,16,4,23,0.00,0,,254
2012-10-9,57,44,31,41,28,18,76,48,23,30.16,29.99,29.83,10,10,10,22,9,30,0.00,0,,336
2012-10-10,67,44,22,30,25,17,86,50,24,30.21,30.10,29.99,10,10,10,17,5,24,0.00,0,,205
2012-10-11,56,46,38,33,28,22,67,47,31,30.36,30.13,29.96,10,10,10,23,7,32,0.00,0,,33
2012-10-12,52,40,29,42,26,17,74,55,27,30.37,30.21,29.95,10,10,7,18,9,24,0.01,4,,133
2012-10-13,74,62,50,55,50,41,94,74,46,29.89,29.73,29.63,10,9,3,16,10,22,0.15,5,Rain-Thunderstorm,188
2012-10-14,71,57,43,42,37,34,78,50,26,30.00,29.92,29.72,10,10,10,18,11,28,0.00,1,,339
2012-10-15,80,58,36,44,37,32,86,50,19,30.00,29.87,29.70,10,10,10,14,4,18,0.00,0,,168
2012-10-16,78,64,50,45,41,35,76,44,21,29.70,29.55,29.36,10,10,10,17,9,24,0.00,0,,252
2012-10-17,66,58,50,46,28,10,61,35,14,29.65,29.53,29.32,10,10,7,45,21,53,0.00,2,,303
2012-10-18,51,49,47,35,27,18,62,43,30,29.72,29.62,29.57,10,9,5,45,28,61,0.00,7,Rain,313
2012-10-19,55,44,34,35,33,29,83,61,45,29.84,29.79,29.72,10,10,5,29,20,46,0.00,4,,327
2012-10-20,72,51,30,39,32,27,95,57,19,29.79,29.72,29.64,10,9,3,16,5,21,0.00,0,,144
2012-10-21,76,56,36,44,37,32,86,55,22,29.85,29.74,29.67,10,10,3,17,6,24,0.00,1,,45
2012-10-22,54,50,46,50,46,43,93,82,71,29.89,29.84,29.80,10,6,2,14,9,21,0.00,7,Rain,356
2012-10-23,58,50,43,53,50,43,98,91,82,29.79,29.74,29.67,7,3,0,9,2,,0.00,8,Fog,196
2012-10-24,54,49,43,50,43,31,99,81,54,29.87,29.82,29.78,10,6,0,23,12,30,0.00,8,Fog-Rain-Thunderstorm,360
2012-10-25,41,37,32,34,29,24,93,79,62,30.36,30.11,29.79,10,8,1,25,19,33,0.00,8,Rain-Snow,335
2012-10-26,40,34,28,27,24,21,77,64,48,30.50,30.43,30.35,10,10,10,15,8,22,0.00,8,,315
2012-10-27,45,35,25,28,25,21,86,68,48,30.37,30.28,30.18,10,10,10,16,5,23,0.00,2,,171
2012-10-28,54,38,23,31,27,20,90,64,35,30.25,30.18,30.09,10,10,7,20,8,25,0.00,3,,154
2012-10-29,61,47,33,32,30,27,77,53,31,30.13,30.08,30.04,10,10,10,14,10,21,0.00,1,,149
2012-10-30,58,48,37,32,31,28,75,59,35,30.07,30.03,30.00,10,10,10,12,6,,0.00,2,,119
2012-10-31,71,50,30,39,33,26,88,60,27,30.05,30.01,29.95,10,10,5,8,1,,0.00,2,,64